This demonstration page uses our WeatherBlox Daily Observations layout. Learn more.

41.55636, -103.73856

Hourly Observations for August 7, 2016

Temp ( °F °C ) Dew Point ( °F °C ) Humidity (%) Winds ( mph kmh ) Pressure ( in mb ) Visibility ( mi km ) Precip ( " mm )
12:01 am 00:01 Cloudy with Mist and Fog 64 17.8 63 17.2 96 96 ESE 14 22 29.91 1013 2 3.21868 0 0
12:53 am 00:53 Cloudy with Mist and Fog 64 17.8 63 17.2 96 96 ESE 15 24 29.94 1014 2 3.21868 0 0
1:16 am 01:16 Cloudy with Mist and Fog 64 17.8 63 17.2 96 96 ESE 13 20 29.88 1012 1.75 2.816345 0 0
1:34 am 01:34 Cloudy with Mist and Fog 64 18 63 17 94 94 ESE 16 26 29.88 1012 1.5 2.41401 0 0
1:53 am 01:53 Cloudy with Mist and Fog 64 17.8 62 16.7 93 93 SE 14 22 29.93 1014 1.5 2.41401 0 0
2:04 am 02:04 Cloudy with Mist and Fog 64 18 63 17 94 94 SE 15 24 29.91 1013 2 3.21868 0 0
2:21 am 02:21 Cloudy with Mist and Fog 64 17.8 62 16.7 93 93 ESE 14 22 29.91 1013 1.75 2.816345 0 0
2:53 am 02:53 Cloudy with Mist and Fog 64 17.8 62 16.7 93 93 ESE 14 22 29.93 1014 1.5 2.41401 0 0
3:36 am 03:36 Mostly Cloudy with Mist and Fog 64 18 63 17 94 94 ESE 15 24 29.88 1012 1 1.60934 0 0
3:53 am 03:53 Cloudy with Mist and Fog 64 17.8 63 17.2 96 96 ESE 12 19 29.93 1013 1.25 2.011675 0 0
4:04 am 04:04 Cloudy with Mist and Fog 64 18 63 17 94 94 SE 13 20 29.88 1012 1 1.60934 0 0
4:18 am 04:18 Mostly Cloudy with Mist and Fog 64 18 63 17 94 94 SE 13 20 29.88 1012 1 1.60934 0 0
4:53 am 04:53 Mostly Cloudy with Mist and Fog 64 17.8 63 17.2 96 96 SE 12 19 29.94 1014 1 1.60934 0 0
5:29 am 05:29 Cloudy with Mist and Fog 64 17.8 63 17.2 96 96 ESE 10 17 29.91 1013 2 3.21868 0 0
5:53 am 05:53 Cloudy with Mist and Fog 64 17.8 63 17.2 96 96 ESE 9 15 29.95 1014 4 6.43736 0 0
6:53 am 06:53 Cloudy with Mist and Fog 65 18.3 63 17.2 93 93 ESE 10 17 29.95 1014 4 6.43736 0 0
7:16 am 07:16 Cloudy with Mist and Fog 64 18 63 17 94 94 ESE 9 15 29.91 1013 4 6.43736 0 0
7:53 am 07:53 Cloudy with Mist and Fog 66 18.9 63 17.2 90 90 ESE 9 15 29.96 1014 5 8.0467 0 0
8:27 am 08:27 Cloudy 67 19.4 63 17.2 87 87 ESE 12 19 29.88 1012 9 14.48406 0 0
8:40 am 08:40 Cloudy 66 19 63 17 88 88 ESE 13 20 29.91 1013 9 14.48406 0 0
8:50 am 08:50 Cloudy 66 19 63 17 88 88 ESE 13 20 29.91 1013 9 14.48406 0 0
8:53 am 08:53 Cloudy 67 19.4 63 17.2 87 87 ESE 13 20 29.97 1015 9 14.48406 0 0
9:32 am 09:32 Cloudy 66 19 63 17 88 88 ESE 14 22 29.91 1013 10 16.0934 0 0
9:53 am 09:53 Cloudy 67 19.4 63 17.2 87 87 ESE 15 24 29.97 1015 10 16.0934 0 0
10:03 am 10:03 Cloudy 68 20 63 17 83 83 ESE 16 26 29.91 1013 9 14.48406 0 0
10:49 am 10:49 Cloudy 72 22 64 18 78 78 E 16 26 29.85 1011 10 16.0934 0 0
10:53 am 10:53 Cloudy 72 22.2 64 17.8 76 76 ESE 15 24 29.95 1014 10 16.0934 0 0
11:51 am 11:51 Partly Cloudy 75 24 64 18 69 69 E 16 26 29.83 1010 10 16.0934 0 0
11:53 am 11:53 Partly Cloudy 76 24.4 65 18.3 69 69 ESE 15 24 29.93 1014 10 16.0934 0 0
12:53 pm 12:53 Sunny 78 25.6 65 18.3 64 64 E 17 28 29.91 1013 10 16.0934 0 0
1:53 pm 13:53 Sunny 80 26.7 66 18.9 62 62 ESE 21 33 29.88 1012 10 16.0934 0 0
2:53 pm 14:53 Sunny 82 27.8 65 18.3 56 56 ESE 21 33 29.87 1011 10 16.0934 0 0
3:53 pm 15:53 Sunny 83 28.3 64 17.8 53 53 ESE 20 31 29.84 1011 10 16.0934 0 0
4:53 pm 16:53 Sunny 81 27.2 64 17.8 57 57 ESE 24 39 29.83 1010 10 16.0934 0 0
5:53 pm 17:53 Sunny 76 24.4 64 17.8 67 67 ESE 20 31 29.83 1010 10 16.0934 0 0
6:53 pm 18:53 Sunny 76 24.4 64 17.8 67 67 ESE 18 30 29.83 1010 10 16.0934 0 0
7:53 pm 19:53 Sunny 73 22.8 63 17.2 71 71 ESE 23 37 29.81 1009 10 16.0934 0 0
8:53 pm 20:53 Mostly Cloudy 70 21.1 63 17.2 79 79 SE 18 30 29.83 1010 10 16.0934 0 0
9:53 pm 21:53 Cloudy 70 21.1 63 17.2 79 79 ESE 16 26 29.85 1011 10 16.0934 0 0
10:53 pm 22:53 Cloudy 70 21.1 64 17.8 82 82 ESE 14 22 29.84 1010 10 16.0934 0 0
11:53 pm 23:53 Cloudy 69 20.6 64 17.8 84 84 ESE 15 24 29.86 1011 10 16.0934 0 0

Powered by AerisWeather